Change the Weather History Date:

Tuesday, April 16, 2013

  Actual Average Record
Temperature  
Mean Temperature 42 °F -  
Max Temperature 50 °F 57 °F 87 °F (2002)
Min Temperature 33 °F 35 °F 21 °F (1949)
Degree Days  
Heating Degree Days 24    
Moisture  
Dew Point 31 °F    
Average Humidity 69    
Maximum Humidity 87    
Minimum Humidity 47    
Precipitation  
Precipitation 0.00 in - - ()
Sea Level Pressure  
Sea Level Pressure 30.13 in    
Wind  
Wind Speed 8 mph (WNW)    
Max Wind Speed 17 mph    
Max Gust Speed 22 mph    
Visibility 10 miles    
Events      
Averages and records for this station are not official NWS values.
T = Trace of Precipitation, MM = Missing Value Source: NWS Daily Summary

Daily Weather History Graph

Daily Weather History Graph

Search for Another Location

Airport or City:

Trip Planner

Search our weather history database for the weather conditions in past years. The results will help you decide how hot, cold, wet, or windy it might be!

Date:

Astronomy

Apr. 16, 2013 Rise Set
Actual Time 6:08 AM CDT 7:37 PM CDT
Civil Twilight 5:38 AM CDT 8:07 PM CDT
Nautical Twilight 5:02 AM CDT 8:43 PM CDT
Astronomical Twilight 4:23 AM CDT 9:21 PM CDT
Moon 10:21 AM CDT (4/16) 12:38 AM CDT (4/16)
Length of Visible Light 14h 28m
Length of Day
13h 29m
Waxing Crescent, 33% of the Moon is Illuminated
Apr 16
Waxing Crescent
Apr 18
First Quarter
Apr 25
Full
May 2
Last Quarter
May 9
New

Hourly Weather History & Observations

Time (CDT) Temp. Windchill Dew Point Humidity Pressure Visibility Wind Dir Wind Speed Gust Speed Precip Events Conditions
12:15 AM 41.0 °F 37.1 °F 33.8 °F 76% 29.94 in 10.0 mi WSW 5.8 mph - N/A   Mostly Cloudy
12:35 AM 41.0 °F 37.1 °F 33.8 °F 76% 29.95 in 10.0 mi WSW 5.8 mph - N/A   Scattered Clouds
12:55 AM 39.2 °F 35.0 °F 33.8 °F 81% 29.96 in 10.0 mi WSW 5.8 mph - N/A   Clear
1:15 AM 39.2 °F 33.6 °F 33.8 °F 81% 29.96 in 10.0 mi West 8.1 mph - N/A   Clear
1:35 AM 39.2 °F 34.2 °F 32.0 °F 75% 29.95 in 10.0 mi West 6.9 mph - N/A   Clear
1:55 AM 37.4 °F 33.8 °F 32.0 °F 81% 29.95 in 10.0 mi West 4.6 mph - N/A   Clear
2:15 AM 37.4 °F 33.8 °F 32.0 °F 81% 29.96 in 10.0 mi West 4.6 mph - N/A   Clear
2:35 AM 37.4 °F 32.1 °F 30.2 °F 75% 29.96 in 10.0 mi West 6.9 mph - N/A   Clear
2:55 AM 37.4 °F 32.8 °F 30.2 °F 75% 29.97 in 10.0 mi West 5.8 mph - N/A   Clear
3:15 AM 35.6 °F 29.9 °F 30.2 °F 81% 29.98 in 10.0 mi West 6.9 mph - N/A   Clear
3:35 AM 35.6 °F 29.9 °F 30.2 °F 81% 29.99 in 10.0 mi West 6.9 mph - N/A   Clear
3:55 AM 35.6 °F 29.9 °F 30.2 °F 81% 29.99 in 10.0 mi West 6.9 mph - N/A   Clear
4:15 AM 35.6 °F 29.9 °F 30.2 °F 81% 30.00 in 10.0 mi West 6.9 mph - N/A   Clear
4:35 AM 35.6 °F 29.9 °F 30.2 °F 81% 30.01 in 10.0 mi West 6.9 mph - N/A   Clear
4:55 AM 33.8 °F 27.7 °F 30.2 °F 87% 30.01 in 10.0 mi West 6.9 mph - N/A   Clear
5:15 AM 33.8 °F 27.0 °F 28.4 °F 81% 30.01 in 10.0 mi West 8.1 mph - N/A   Clear
5:35 AM 33.8 °F 27.0 °F 28.4 °F 81% 30.01 in 10.0 mi West 8.1 mph - N/A   Clear
5:55 AM 33.8 °F 26.4 °F 28.4 °F 81% 30.01 in 10.0 mi West 9.2 mph - N/A   Clear
6:15 AM 33.8 °F 27.0 °F 28.4 °F 81% 30.03 in 10.0 mi West 8.1 mph - N/A   Clear
6:35 AM 33.8 °F 26.4 °F 28.4 °F 81% 30.03 in 10.0 mi West 9.2 mph - N/A   Clear
7:15 AM 33.8 °F 24.3 °F 28.4 °F 81% 30.05 in 10.0 mi West 13.8 mph 18.4 mph N/A   Clear
7:35 AM 35.6 °F 26.2 °F 28.4 °F 75% 30.06 in 10.0 mi West 15.0 mph 20.7 mph N/A   Clear
7:55 AM 35.6 °F 27.1 °F 28.4 °F 75% 30.08 in 10.0 mi WNW 12.7 mph 19.6 mph N/A   Clear
8:15 AM 35.6 °F 26.2 °F 28.4 °F 75% 30.09 in 10.0 mi WNW 15.0 mph 21.9 mph N/A   Clear
8:35 AM 37.4 °F 27.8 °F 28.4 °F 70% 30.10 in 10.0 mi West 17.3 mph 21.9 mph N/A   Clear
8:55 AM 37.4 °F 27.8 °F 28.4 °F 70% 30.10 in 10.0 mi WNW 17.3 mph 21.9 mph N/A   Clear
9:15 AM 37.4 °F 28.2 °F 28.4 °F 70% 30.10 in 10.0 mi WNW 16.1 mph 19.6 mph N/A   Clear
9:35 AM 37.4 °F 29.3 °F 28.4 °F 70% 30.11 in 10.0 mi West 12.7 mph - N/A   Scattered Clouds
9:55 AM 39.2 °F 30.8 °F 28.4 °F 65% 30.12 in 10.0 mi West 15.0 mph 19.6 mph N/A   Clear
10:15 AM 41.0 °F 33.1 °F 30.2 °F 65% 30.12 in 10.0 mi WNW 15.0 mph 19.6 mph N/A   Scattered Clouds
10:35 AM 41.0 °F 33.9 °F 30.2 °F 65% 30.12 in 10.0 mi West 12.7 mph 16.1 mph N/A   Clear
10:55 AM 42.8 °F 35.8 °F 30.2 °F 61% 30.14 in 10.0 mi West 13.8 mph 19.6 mph N/A   Scattered Clouds
11:15 AM 42.8 °F 36.6 °F 30.2 °F 61% 30.14 in 10.0 mi WNW 11.5 mph 19.6 mph N/A   Clear
11:35 AM 44.6 °F 38.8 °F 30.2 °F 57% 30.15 in 10.0 mi West 11.5 mph 17.3 mph N/A   Scattered Clouds
11:55 AM 44.6 °F 38.1 °F 30.2 °F 57% 30.15 in 10.0 mi West 13.8 mph 17.3 mph N/A   Scattered Clouds
12:15 PM 44.6 °F 37.8 °F 30.2 °F 57% 30.16 in 10.0 mi West 15.0 mph 19.6 mph N/A   Clear
12:35 PM 44.6 °F 37.8 °F 30.2 °F 57% 30.16 in 10.0 mi WNW 15.0 mph - N/A   Clear
12:55 PM 46.4 °F 40.1 °F 30.2 °F 53% 30.16 in 10.0 mi West 15.0 mph 20.7 mph N/A   Clear
1:15 PM 46.4 °F 41.1 °F 32.0 °F 57% 30.17 in 10.0 mi WNW 11.5 mph - N/A   Clear
1:35 PM 46.4 °F 40.4 °F 32.0 °F 57% 30.17 in 10.0 mi West 13.8 mph - N/A   Clear
1:55 PM 46.4 °F 40.1 °F 30.2 °F 53% 30.16 in 10.0 mi West 15.0 mph 21.9 mph N/A   Clear
2:15 PM 46.4 °F 40.1 °F 32.0 °F 57% 30.16 in 10.0 mi NW 15.0 mph 19.6 mph N/A   Clear
2:35 PM 46.4 °F 40.7 °F 32.0 °F 57% 30.16 in 10.0 mi WNW 12.7 mph 19.6 mph N/A   Clear
2:55 PM 50.0 °F - 32.0 °F 50% 30.16 in 10.0 mi NNW 10.4 mph 17.3 mph N/A   Clear
3:15 PM 48.2 °F - 32.0 °F 54% 30.17 in 10.0 mi NNW 10.4 mph - N/A   Clear
3:35 PM 50.0 °F - 30.2 °F 47% 30.18 in 10.0 mi NW 8.1 mph - N/A   Clear
3:55 PM 50.0 °F - 32.0 °F 50% 30.19 in 10.0 mi WNW 6.9 mph - N/A   Clear
4:15 PM 50.0 °F - 32.0 °F 50% 30.19 in 10.0 mi NW 10.4 mph - N/A   Scattered Clouds
4:35 PM 50.0 °F - 30.2 °F 47% 30.19 in 10.0 mi NW 9.2 mph - N/A   Clear
4:55 PM 50.0 °F - 30.2 °F 47% 30.19 in 10.0 mi WNW 6.9 mph - N/A   Clear
5:15 PM 50.0 °F - 30.2 °F 47% 30.19 in 10.0 mi NNW 9.2 mph - N/A   Clear
5:35 PM 50.0 °F - 30.2 °F 47% 30.20 in 10.0 mi WNW 9.2 mph - N/A   Clear
5:55 PM 48.2 °F - 30.2 °F 50% 30.21 in 10.0 mi NNW 6.9 mph - N/A   Clear
6:15 PM 48.2 °F - 32.0 °F 54% 30.21 in 10.0 mi NNE 8.1 mph - N/A   Scattered Clouds
6:35 PM 46.4 °F 42.9 °F 32.0 °F 57% 30.22 in 10.0 mi North 6.9 mph - N/A   Clear
6:55 PM 44.6 °F 39.7 °F 30.2 °F 57% 30.22 in 10.0 mi NNW 9.2 mph - N/A   Clear
7:15 PM 44.6 °F 39.7 °F 30.2 °F 57% 30.23 in 10.0 mi North 9.2 mph - N/A   Clear
7:35 PM 42.8 °F 39.3 °F 30.2 °F 61% 30.23 in 10.0 mi North 5.8 mph - N/A   Clear
7:55 PM 42.8 °F 41.1 °F 30.2 °F 61% 30.24 in 10.0 mi NNW 3.5 mph - N/A   Clear
8:15 PM 41.0 °F 39.0 °F 30.2 °F 65% 30.25 in 10.0 mi NNW 3.5 mph - N/A   Clear
8:35 PM 41.0 °F - 30.2 °F 65% 30.26 in 10.0 mi Calm Calm - N/A   Clear
8:55 PM 39.2 °F 33.6 °F 32.0 °F 75% 30.27 in 10.0 mi East 8.1 mph - N/A   Clear
9:15 PM 37.4 °F 34.9 °F 32.0 °F 81% 30.27 in 10.0 mi ESE 3.5 mph - N/A   Clear
9:35 PM 37.4 °F 34.9 °F 32.0 °F 81% 30.27 in 10.0 mi ESE 3.5 mph - N/A   Clear
9:55 PM 35.6 °F 32.8 °F 32.0 °F 87% 30.28 in 10.0 mi East 3.5 mph - N/A   Scattered Clouds
10:15 PM 35.6 °F - 32.0 °F 87% 30.29 in 10.0 mi Calm Calm - N/A   Scattered Clouds
10:35 PM 35.6 °F - 32.0 °F 87% 30.28 in 10.0 mi Calm Calm - N/A   Clear
10:55 PM 35.6 °F - 32.0 °F 87% 30.29 in 10.0 mi Calm Calm - N/A   Clear
11:15 PM 35.6 °F - 30.2 °F 81% 30.29 in 10.0 mi Calm Calm - N/A   Scattered Clouds
11:35 PM 35.6 °F - 32.0 °F 87% 30.29 in 10.0 mi Calm Calm - N/A   Mostly Cloudy
11:55 PM 35.6 °F - 32.0 °F 87% 30.29 in 10.0 mi Calm Calm - N/A   Mostly Cloudy